Location: The Saddle
(36.8333°N, 80.3417°W)
Time: 10:36:54
(UTC-05:00)

S-56A Canister/Altair - Pass Details

Date: 16 December 2023
Orbit: 640 x 2488 km, 38.9° (Epoch: 25 February)

Event Time Altitude Azimuth Distance (km) Brightness Sun altitude
Rises 14:33:04 0° 277° (W) 2,998 10.9 21.8°
Reaches altitude 10° 14:36:05 10° 256° (WSW) 2,024 10.6 21.5°
Maximum altitude 14:39:01 17° 215° (SW) 1,609 12.6 21.2°
Drops below altitude 10° 14:42:03 10° 173° (S) 2,103 10.6 20.8°
Sets 14:45:18 0° 153° (SSE) 3,171 11.1 20.4°
